STARLINK-32717 (62491 NORAD) Tracking and Keplerian Element Data

This shows tracking and keplerian element data for the satellite.

Feedback or suggestion? Click here.




ElementValue
Catalog62491
NameSTARLINK-32717
Epoch Orbit5450
Epoch Day354.11750552
Epoch Year2025
RAAN18.2149
Inclination43.0012
Eccentricity9.38E-05
Argument of Perigee263.4667
Mean Anonmoly96.6078
Mean Motion15.27586622
Decay Rate5.528E-05
L11 62491U 25003E 25354.11750552 .00005528 00000+0 21022-3 0 9996
L22 62491 43.0012 18.2149 0000938 263.4667 96.6078 15.27586622 54507



Live tracking and technical data element details for STARLINK-32717 (NORAD 62491). STARLINK-32717 can be tracked NOW for your location showing map with azimuth and elevation plus other details from your city location.







IsCatalogInMostPopularTable: catalog: 62491, numindb: 81
Update: records affected: 1



GetName: 62491 STARLINK-32717

Hit Count: updated at: Mon, 09 Feb 2026 08:18:02 GMT